YAOGAN 20B

导读

YAOGAN 20B(遥感二十号B星)是中国发射的遥感系列卫星,于北京时间2014年8月9日在酒泉卫星发射基地,通过长征四号丙运载火箭成功送入预定轨道。作为中国遥感卫星家族成员,该卫星主要承担科学试验、国土资源普查、农作物估产以及防灾减灾等任务,相关数据将为国民经济发展提供有力信息支撑,也标志着中国在遥感卫星领域持续推进技术应用建设。

基本信息
目录编号:
40110
目录名称:
YAOGAN 20B
国际标识:
2014-047B
轨道中心:
EARTH
卫星名称:
YAOGAN 20B
卫星全名:
--
卫星状态:
在轨 (已飞行4416 天)
发射日期:
2014-08-09 UTC
国别 :
中国 (CN)
星等 :
--
轨道信息
数据来源 国际轨道数据 AOE轨道数据
星历时间 2026-09-11T05:51:06+0800
7小时前
查看轨道信息
2026-09-10T23:00:00+0800
14小时前
查看轨道信息
半长轴 7467.201km 7467.189km
偏心率 0.0397574 0.0397041
轨道倾角 63.378° 63.376°
近地点辐角 15.164° 15.169°
升交点赤经 158.986° 159.722°
平近点角 346.090° 43.298°
近地点 792.187km 792.573km
远地点 1385.941km 1385.531km
周期 107.028分钟 107.027分钟
每日圈数 13.454453 13.454486
详细信息
使用方式:
暂无
2D轨道图
3D轨道图
轨道高度分析图
轨道倾角分析图
轨道综合分析图
查看轨道综合分析图
与全量物体交会距离演化趋势
与全量物体交会风险概率演化趋势